FIN9AD EHAM-EFHK

Flight info

Callsign FIN9AD
Flight time N/A
Altitude 41000
Route ANDIK N873 HUNQI DCT ATTUS DCT KOXIM DCT RUNGA DCT RIRIP Y364 LAKUT
Aircraft A359/H-SDE2E3GHIJ3J4J5LM1ORWXY/LB1D1

Departure

Time 2026-04-17 12:14
Airport Amsterdam Airport Schiphol (EHAM)

Arrival

Time N/A
Airport Helsinki Vantaa Airport (EFHK)
Time Latitude Longitude Altitude Speed Heading
2026-04-17 11:46 52.30925 4.76795 5 ft 0 kts 183°
2026-04-17 12:01 52.30927 4.76796 5 ft 2 kts 182°
2026-04-17 12:02 52.30953 4.76794 7 ft 4 kts 166°
2026-04-17 12:02 52.30977 4.76777 7 ft 4 kts 137°
2026-04-17 12:02 52.30992 4.76743 5 ft 4 kts 105°
2026-04-17 12:02 52.30995 4.76701 5 ft 4 kts 84°
2026-04-17 12:03 52.30994 4.76691 6 ft 0 kts 82°
2026-04-17 12:05 52.30996 4.76724 5 ft 9 kts 84°
2026-04-17 12:06 52.31033 4.76815 5 ft 11 kts 36°
2026-04-17 12:06 52.31086 4.76914 5 ft 12 kts 78°
2026-04-17 12:06 52.31083 4.77064 5 ft 14 kts 92°
2026-04-17 12:06 52.31079 4.77180 5 ft 7 kts 95°
2026-04-17 12:07 52.31074 4.77277 5 ft 11 kts 95°
2026-04-17 12:07 52.31060 4.77435 5 ft 16 kts 120°
2026-04-17 12:07 52.30957 4.77480 5 ft 17 kts 183°
2026-04-17 12:07 52.30834 4.77469 5 ft 18 kts 185°
2026-04-17 12:08 52.30782 4.77463 5 ft 6 kts 184°
2026-04-17 12:08 52.30729 4.77459 5 ft 10 kts 182°
2026-04-17 12:08 52.30648 4.77479 5 ft 12 kts 155°
2026-04-17 12:08 52.30570 4.77543 5 ft 12 kts 153°
2026-04-17 12:09 52.30489 4.77611 5 ft 14 kts 152°
2026-04-17 12:09 52.30402 4.77602 5 ft 12 kts 220°
2026-04-17 12:09 52.30387 4.77567 4 ft 0 kts 237°
2026-04-17 12:13 52.30306 4.77358 3 ft 57 kts 238°
2026-04-17 12:14 52.29962 4.76461 4 ft 126 kts 238°
2026-04-17 12:14 52.29406 4.75000 252 ft 163 kts 236°
2026-04-17 12:14 52.28789 4.73392 1003 ft 171 kts 236°
2026-04-17 12:14 52.28124 4.71790 1728 ft 174 kts 229°
2026-04-17 12:15 52.26993 4.70953 2067 ft 193 kts 185°
2026-04-17 12:15 52.25622 4.71384 2492 ft 210 kts 159°
2026-04-17 12:15 52.24346 4.72639 3107 ft 216 kts 148°
2026-04-17 12:15 52.23113 4.74055 3868 ft 217 kts 148°
2026-04-17 12:16 52.21864 4.75461 4589 ft 219 kts 149°
2026-04-17 12:16 52.20705 4.77120 5284 ft 226 kts 133°
2026-04-17 12:16 52.19802 4.79308 5767 ft 242 kts 124°
2026-04-17 12:16 52.18932 4.81773 6170 ft 258 kts 123°
2026-04-17 12:17 52.18263 4.84552 6733 ft 271 kts 103°
2026-04-17 12:17 52.18397 4.87649 7335 ft 283 kts 72°
2026-04-17 12:17 52.19504 4.90341 7902 ft 292 kts 44°
2026-04-17 12:17 52.21062 4.92508 8562 ft 296 kts 39°
2026-04-17 12:18 52.22653 4.94590 9238 ft 299 kts 38°
2026-04-17 12:18 52.24282 4.96745 9878 ft 304 kts 39°
2026-04-17 12:18 52.25933 4.98956 10415 ft 311 kts 39°
2026-04-17 12:18 52.27642 5.01262 10693 ft 327 kts 39°
2026-04-17 12:19 52.29433 5.03693 10944 ft 342 kts 39°
2026-04-17 12:19 52.31303 5.06239 11197 ft 357 kts 39°
2026-04-17 12:19 52.33345 5.08675 11423 ft 369 kts 28°
2026-04-17 12:19 52.35750 5.10248 11752 ft 376 kts 14°
2026-04-17 12:20 52.38287 5.11380 12230 ft 380 kts 13°
2026-04-17 12:20 52.40858 5.12480 12731 ft 383 kts 13°
2026-04-17 12:20 52.43449 5.13598 13231 ft 386 kts 13°
2026-04-17 12:20 52.46065 5.14735 13735 ft 389 kts 13°
2026-04-17 12:21 52.48660 5.15869 14200 ft 392 kts 13°
2026-04-17 12:21 52.51307 5.17031 14643 ft 395 kts 13°
2026-04-17 12:21 52.53974 5.18203 15093 ft 397 kts 13°
2026-04-17 12:21 52.56659 5.19386 15550 ft 400 kts 12°
2026-04-17 12:22 52.59357 5.20577 15999 ft 403 kts 12°
2026-04-17 12:22 52.62076 5.21779 16455 ft 405 kts 12°
2026-04-17 12:22 52.64805 5.22986 16902 ft 408 kts 12°
2026-04-17 12:22 52.67528 5.24193 17359 ft 410 kts 12°
2026-04-17 12:23 52.70328 5.25446 17808 ft 413 kts 13°
2026-04-17 12:23 52.72990 5.27167 18227 ft 420 kts 27°
2026-04-17 12:23 52.75331 5.30081 18624 ft 425 kts 43°
2026-04-17 12:23 52.77351 5.33676 18986 ft 428 kts 49°
2026-04-17 12:24 52.79229 5.37527 19345 ft 431 kts 52°
2026-04-17 12:24 52.81044 5.41504 19719 ft 434 kts 53°
2026-04-17 12:24 52.82850 5.45536 20081 ft 436 kts 53°
2026-04-17 12:24 52.84647 5.49526 20447 ft 439 kts 52°
2026-04-17 12:25 52.86487 5.53560 20805 ft 441 kts 52°
2026-04-17 12:25 52.88357 5.57613 21157 ft 443 kts 51°
2026-04-17 12:25 52.90240 5.61661 21533 ft 445 kts 51°
2026-04-17 12:25 52.92139 5.65729 21881 ft 447 kts 51°
2026-04-17 12:26 52.94045 5.69810 22228 ft 449 kts 51°
2026-04-17 12:26 52.95966 5.73929 22555 ft 451 kts 51°
2026-04-17 12:26 52.97891 5.78064 22889 ft 453 kts 51°
2026-04-17 12:26 52.99819 5.82215 23221 ft 455 kts 51°
2026-04-17 12:27 53.01759 5.86401 23541 ft 458 kts 51°